Observations for Trim Market St
| Time | AQI | Temp °C | Hum % | Pres Pa | CO μg/m³ | H₂S μg/m³ | NO μg/m³ | NO₂ μg/m³ | O₃ μg/m³ | SO₂ μg/m³ | PM1 μg/m³ | PM2.5 μg/m³ | PM10 μg/m³ |
|---|---|---|---|---|---|---|---|---|---|---|---|---|---|
| Wednesday 15 July 2026 | |||||||||||||
| 11:59 | 1 | 35.1 | 33 | 66,359 | 0 | 0 | 0 | 0 | 32.1 | 0 | 9.98 | 15.55 | 21.04 |
| 11:54 | 1 | 35.1 | 34 | 66,423 | 0 | 0 | 0 | 0 | 22.47 | 0 | 11.4 | 18.19 | 26.03 |
| 11:53 | 1 | 35 | 34 | 66,394 | 0 | 0 | 0 | 0 | 30.2 | 0 | 8.55 | 12.8 | 16.77 |
| 11:47 | 1 | 34.7 | 35 | 66,311 | 0 | 0 | 0 | 0 | 27.22 | 0 | 7.13 | 12.23 | 15.9 |
| 11:45 | 1 | 34.7 | 35 | 66,307 | 0 | 0 | 0 | 0 | 23.95 | 0 | 9.26 | 12.76 | 16.73 |
| 11:42 | 1 | 34.7 | 35 | 66,301 | 0 | 0 | 0 | 0 | 28.4 | 0 | 9.98 | 13.83 | 20.06 |
| 11:41 | 1 | 34.6 | 35 | 66,301 | 0 | 0 | 0 | 0 | 29.13 | 0 | 8.55 | 13.82 | 21.73 |
| 11:40 | 1 | 34.6 | 35 | 66,301 | 0 | 0 | 0 | 0 | 27.75 | 0 | 9.98 | 15.96 | 22.56 |
| 11:39 | 1 | 34.6 | 35 | 66,297 | 0 | 0 | 0 | 0 | 31.81 | 0 | 9.26 | 12.21 | 17.55 |
| 11:38 | 1 | 34.6 | 35 | 66,296 | 0 | 0 | 0 | 0 | 29.45 | 0 | 10.69 | 15.42 | 21.72 |
| 11:37 | 1 | 34.5 | 35 | 66,292 | 0 | 0 | 0 | 0 | 28.85 | 0 | 9.26 | 13.81 | 18.37 |
| 11:36 | 1 | 34.5 | 35 | 66,254 | 0 | 0 | 0 | 0 | 29.97 | 0 | 9.98 | 14.33 | 20.03 |
| 11:35 | 1 | 34.4 | 35 | 66,262 | 0 | 0 | 0 | 0 | 25.26 | 0 | 9.26 | 13.79 | 18.35 |
| 11:34 | 1 | 34.4 | 35 | 66,242 | 0 | 0 | 0 | 0 | 32.86 | 0 | 10.69 | 14.86 | 20.85 |
| 11:33 | 1 | 34.3 | 35 | 66,219 | 0 | 0 | 0 | 0 | 21.92 | 0 | 6.41 | 11.64 | 15.02 |
| 11:27 | 1 | 34 | 36 | 66,176 | 0 | 0 | 0 | 0 | 29.36 | 0 | 3.56 | 8.41 | 10.85 |
| 11:24 | 1 | 33.9 | 36 | 66,147 | 0 | 0 | 0 | 0 | 29.91 | 0 | 8.55 | 13.74 | 19.13 |
| 11:23 | 1 | 33.9 | 36 | 66,163 | 0 | 0 | 0 | 0 | 29.51 | 0 | 8.55 | 12.67 | 19.13 |
| 11:19 | 1 | 33.8 | 36 | 66,117 | 0 | 0 | 0 | 0 | 21.5 | 0 | 8.55 | 12.66 | 16.63 |
| 11:12 | 1 | 33.5 | 37 | 66,035 | 0 | 0 | 0 | 0 | 17.73 | 0 | 7.84 | 13.14 | 19.05 |